FW1247 Weather Reports


time (UTC)temp
C
wind
direction
speed
KPH
gust
KPH
rain 1hr
cm
rain 24hr
cm
rain mn
cm
humidity
%
barometer
mb
20260902173045 18 283 4.8 12.9 0.00 0.05 0.03 78 1012.1
20260902171543 19 232 6.4 11.3 0.00 0.05 0.03 77 1012.1
20260902170038 19 269 8.0 24.1 0.00 0.05 0.03 77 1012.1
20260902164538 19 196 8.0 17.7 0.00 0.05 0.03 77 1012.2
20260902163037 19 242 14.5 22.5 0.00 0.05 0.03 76 1011.9
20260902161535 20 242 11.3 27.4 0.00 0.05 0.03 77 1012.0
20260902160039 20 251 11.3 19.3 0.00 0.05 0.03 76 1012.1
20260902154534 20 212 9.7 24.1 0.00 0.05 0.03 75 1012.1
20260902153033 20 224 11.3 29.0 0.00 0.05 0.03 74 1012.2
20260902151531 20 204 14.5 29.0 0.00 0.05 0.03 73 1012.2
20260902150029 20 213 11.3 29.0 0.00 0.05 0.03 73 1012.3
20260902144528 20 229 14.5 27.4 0.00 0.05 0.03 71 1012.4
20260902143026 20 236 11.3 24.1 0.00 0.05 0.03 73 1012.4
20260902141525 20 203 12.9 24.1 0.00 0.05 0.03 73 1012.5
20260902140033 20 270 11.3 20.9 0.00 0.05 0.03 73 1012.4
20260902134523 20 234 11.3 29.0 0.00 0.05 0.03 72 1012.5
20260902133022 20 246 14.5 29.0 0.00 0.05 0.03 70 1012.5
20260902131521 20 211 16.1 37.0 0.00 0.05 0.03 69 1012.6
20260902130020 21 221 11.3 30.6 0.00 0.05 0.03 68 1012.5
20260902124522 20 194 14.5 35.4 0.00 0.08 0.03 68 1012.8
20260902123025 20 246 14.5 32.2 0.00 0.08 0.03 67 1012.9
20260902121518 20 211 11.3 27.4 0.00 0.08 0.03 68 1012.8
20260902120017 21 219 16.1 27.4 0.00 0.08 0.03 66 1012.8
20260902114515 20 186 14.5 24.1 0.00 0.38 0.03 68 1013.0
20260902113014 19 200 12.9 25.7 0.00 0.38 0.03 70 1013.1
20260902111533 19 181 14.5 29.0 0.00 0.38 0.03 69 1013.2
20260902110034 20 197 16.1 29.0 0.00 0.38 0.03 68 1013.2
20260902104511 20 236 12.9 30.6 0.00 0.41 0.03 75 1013.3
20260902103008 18 174 17.7 25.7 0.00 0.41 0.03 75 1013.3
20260902101506 19 239 9.7 25.7 0.00 0.41 0.03 75 1013.3
20260902100006 20 189 12.9 27.4 0.00 0.41 0.03 75 1013.2
20260902094502 19 202 14.5 27.4 0.00 0.51 0.03 75 1013.2
20260902093059 19 215 14.5 29.0 0.00 0.51 0.03 76 1013.0
20260902091600 18 207 17.7 27.4 0.00 0.51 0.03 80 1013.2
20260902090053 18 197 14.5 24.1 0.00 0.51 0.03 83 1013.2
20260902084556 18 187 14.5 33.8 0.00 0.51 0.03 85 1013.3
20260902083057 18 179 12.9 29.0 0.00 0.51 0.03 86 1013.2
20260902081547 17 229 16.1 24.1 0.00 0.51 0.03 89 1013.3
20260902080100 17 224 12.9 33.8 0.00 0.51 0.03 89 1013.2
20260902074542 17 215 11.3 24.1 0.00 0.51 0.03 90 1013.1
20260902073039 17 201 6.4 16.1 0.00 0.51 0.03 92 1013.1
20260902071538 17 212 11.3 19.3 0.00 0.51 0.03 93 1013.1
20260902070036 16 192 8.0 19.3 0.00 0.51 0.03 93 1013.1
20260902064534 16 217 11.3 19.3 0.00 0.71 0.03 94 1013.1
20260902063033 16 202 11.3 17.7 0.00 0.71 0.03 94 1012.9
20260902061544 16 205 6.4 17.7 0.00 0.71 0.03 94 1013.0
20260902060033 15 221 8.0 16.1 0.00 0.71 0.03 94 1012.9
20260902054538 15 230 8.0 16.1 0.00 0.71 0.03 94 1012.9
20260902053023 15 226 8.0 16.1 0.00 0.71 0.03 95 1012.9
20260902051518 15 196 8.0 17.7 0.00 0.71 0.03 95 1012.8
20260902050015 15 192 6.4 11.3 0.00 0.71 0.03 95 1012.8
20260902044512 14 216 6.4 11.3 0.00 0.71 0.03 95 1012.8
20260902043014 14 239 6.4 11.3 0.00 0.71 0.03 95 1012.7
20260902041508 14 188 4.8 9.7 0.00 0.71 0.03 95 1012.8
20260902040107 14 204 6.4 16.1 0.00 0.71 0.03 95 1012.9
20260902034506 13 212 6.4 11.3 0.00 0.71 0.03 95 1012.9
20260902033008 13 202 6.4 14.5 0.00 0.71 0.03 95 1012.8
20260902031503 13 212 4.8 8.0 0.00 0.71 0.03 95 1012.8
20260902030002 13 229 4.8 9.7 0.00 0.71 0.03 95 1012.9
20260902024601 13 215 3.2 6.4 0.00 0.71 0.03 95 1012.8
20260902023110 13 239 0.0 3.2 0.00 0.71 0.03 94 1012.9
20260902021608 13 239 1.6 4.8 0.00 0.71 0.03 95 1012.8
20260902020100 13 240 0.0 4.8 0.00 0.71 0.03 94 1012.8
20260902014559 13 240 0.0 3.2 0.00 0.71 0.03 94 1012.8
20260902013054 13 240 0.0 4.8 0.03 0.71 0.03 94 1012.7
20260902011553 13 242 3.2 6.4 0.03 0.71 0.03 94 1012.7
20260902010054 14 242 1.6 6.4 0.03 0.71 0.03 94 1012.7
20260902004551 14 278 0.0 4.8 0.03 0.71 0.03 93 1012.8
20260902003048 14 271 1.6 4.8 0.00 0.71 0.00 93 1012.8
20260902001547 15 271 1.6 11.3 0.00 0.71 0.00 93 1012.9
20260902000051 15 284 4.8 9.7 0.00 0.71 0.00 93 1012.8
20260901234554 15 281 6.4 16.1 0.00 0.71 0.00 93 1012.8
20260901233045 15 265 8.0 16.1 0.00 0.71 0.00 93 1012.8
20260901231543 15 288 1.6 8.0 0.00 0.71 0.00 93 1012.8
20260901230045 15 292 3.2 14.5 0.00 0.71 0.00 92 1012.7
20260901224539 15 281 3.2 12.9 0.00 0.71 0.00 92 1012.6
20260901223035 15 283 3.2 14.5 0.00 0.71 0.00 92 1012.5
20260901221551 15 277 6.4 14.5 0.00 0.71 0.00 92 1012.5
20260901220031 15 298 4.8 20.9 0.00 0.71 0.00 92 1012.4
20260901214531 15 284 6.4 12.9 0.00 0.71 0.71 92 1012.4
20260901213055 15 285 1.6 14.5 0.00 0.71 0.71 92 1012.3
20260901211540 15 254 4.8 11.3 0.00 0.71 0.71 92 1012.3
20260901210037 15 267 4.8 12.9 0.00 0.71 0.71 92 1012.2
20260901204527 15 264 4.8 12.9 0.00 0.71 0.71 91 1012.2
20260901203039 15 295 4.8 9.7 0.00 0.71 0.71 91 1012.1
20260901201524 15 238 4.8 9.7 0.00 0.71 0.71 91 1012.0
20260901200037 16 230 6.4 12.9 0.00 0.71 0.71 90 1012.0
20260901194523 16 283 4.8 16.1 0.00 0.71 0.71 90 1011.9
20260901193024 16 246 4.8 16.1 0.00 0.71 0.71 91 1011.9
20260901191522 16 234 8.0 17.7 0.03 0.71 0.71 91 1012.0
20260901190022 16 248 4.8 11.3 0.03 0.71 0.71 90 1011.9
20260901184521 16 249 4.8 12.9 0.03 0.71 0.71 90 1011.7
20260901183015 16 257 12.9 27.4 0.00 0.71 0.71 88 1011.7
20260901181516 17 286 16.1 35.4 0.00 0.71 0.71 84 1011.4
20260901180013 17 287 6.4 24.1 0.00 0.71 0.71 87 1011.3
20260901174512 18 223 9.7 24.1 0.00 0.71 0.71 85 1011.2